Вернуться в каталог

COSMOS 1903

АктивенВоенныеHEO
NORAD 18701·PAYLOAD·🇷🇺 Russia

Запущен Dec 21, 1987 с Plesetsk Cosmodrome

Loading…

Ближайшие Пролёты (ближайшие 24 часа)

TLE

СвежийSource: Space-Track

Эпоха: Sep 12, 2026, 19:53 UTC

1 18701U 87105A   26255.82857467  .00000086  00000-0  00000-0 0  9999
2 18701  69.0332 191.0416 4404566  92.9363 316.6355  2.00784172284436

Отслеживайте COSMOS 1903 в реальном времени с AllMySat

Download on the App Store